Walhalla, ND

12:54 AM CDT on October 22, 2017 (GMT -0500)
Walhalla

Weather History for K96D - August, 2014

Change the Weather History Date:

Saturday, August 23, 2014

  Actual Average (KGAF) Record (KGAF)
Temperature  
Mean Temperature 60 °F -  
Max Temperature 66 °F 80 °F 96 °F (1976)
Min Temperature 55 °F 52 °F 37 °F (1974)
Degree Days  
Heating Degree Days 4    
Growing Degree Days 10 (Base 50)    
Moisture  
Dew Point 61 °F    
Average Humidity 100    
Maximum Humidity 100    
Minimum Humidity 100    
Precipitation  
Precipitation 0.24 in - - ()
Sea Level Pressure  
Sea Level Pressure 30.04 in    
Wind  
Wind Speed 11 mph (NNE)    
Max Wind Speed 17 mph    
Max Gust Speed 22 mph    
Visibility 5 miles    
Events Fog , Rain    
Averages and records for this station are not official NWS values.
T = Trace of Precipitation, MM = Missing Value Source: NWS Daily Summary

Daily Weather History Graph

Daily Weather History Graph

Search for Another Location

Airport or City:

Trip Planner

Search our weather history database for the weather conditions in past years. The results will help you decide how hot, cold, wet, or windy it might be!

Date:

Astronomy

Aug. 23, 2014 Rise Set
Actual Time 6:35 AM CDT 8:31 PM CDT
Civil Twilight 6:01 AM CDT 9:05 PM CDT
Nautical Twilight 5:19 AM CDT 9:47 PM CDT
Astronomical Twilight 4:32 AM CDT 10:33 PM CDT
Moon 4:49 AM CDT (8/23) 7:18 PM CDT (8/23)
Length of Visible Light 15h 04m
Length of Day
13h 56m
Waning Crescent, 3% of the Moon is Illuminated
Aug 23
Waning Crescent
Aug 25
New
Sep 2
First Quarter
Sep 8
Full
Sep 15
Last Quarter

Hourly Weather History & Observations

Time (CDT) Temp. Dew Point Humidity Pressure Visibility Wind Dir Wind Speed Gust Speed Precip Events Conditions
12:15 AM 59.0 °F 59.0 °F 100% 30.15 in 2.0 mi North 9.2 mph - N/A   Mist
12:35 AM 59.0 °F 59.0 °F 100% 30.15 in 4.0 mi North 11.5 mph - N/A   Mist
12:55 AM 59.0 °F 59.0 °F 100% 30.15 in 6.0 mi North 11.5 mph - N/A   Clear
1:15 AM 59.0 °F 59.0 °F 100% 30.15 in 3.0 mi North 11.5 mph - N/A   Mist
1:35 AM 59.0 °F 59.0 °F 100% 30.14 in 1.8 mi North 13.8 mph - N/A   Mist
1:55 AM 57.2 °F 57.2 °F 100% 30.14 in 10.0 mi North 10.4 mph - N/A   Unknown
2:15 AM 57.2 °F 57.2 °F 100% 30.13 in 10.0 mi North 13.8 mph - N/A   Unknown
2:35 AM 57.2 °F 57.2 °F 100% 30.13 in 10.0 mi North 10.4 mph - N/A   Unknown
2:55 AM 57.2 °F 57.2 °F 100% 30.13 in 10.0 mi North 11.5 mph - N/A   Unknown
3:15 AM 57.2 °F 57.2 °F 100% 30.13 in 10.0 mi North 9.2 mph - N/A   Unknown
3:35 AM 57.2 °F 57.2 °F 100% 30.13 in 9.0 mi North 10.4 mph - N/A   Unknown
4:15 AM 57.2 °F 57.2 °F 100% 30.14 in 10.0 mi North 9.2 mph - N/A   Unknown
4:35 AM 57.2 °F 57.2 °F 100% 30.13 in 9.0 mi North 10.4 mph - N/A   Clear
4:55 AM 57.2 °F 57.2 °F 100% 30.12 in 10.0 mi North 8.1 mph - N/A   Clear
5:15 AM 57.2 °F 57.2 °F 100% 30.12 in 10.0 mi North 10.4 mph - N/A   Clear
5:35 AM 57.2 °F 57.2 °F 100% 30.11 in 10.0 mi North 9.2 mph - N/A   Clear
5:55 AM 57.2 °F 57.2 °F 100% 30.11 in 10.0 mi North 9.2 mph - N/A   Clear
6:15 AM 57.2 °F 57.2 °F 100% 30.11 in 4.0 mi North 9.2 mph - N/A   Mist
6:35 AM 57.2 °F 57.2 °F 100% 30.12 in 6.0 mi North 9.2 mph - N/A   Mist
6:55 AM 55.4 °F 55.4 °F 100% 30.12 in 0.8 mi North 10.4 mph - N/A   Mist
7:15 AM 55.4 °F 55.4 °F 100% 30.12 in 1.0 mi North 11.5 mph 17.3 mph N/A   Mist
7:35 AM 55.4 °F 55.4 °F 100% 30.12 in 0.8 mi NNE 9.2 mph - N/A   Mist
7:55 AM 55.4 °F 55.4 °F 100% 30.12 in 0.8 mi North 9.2 mph - N/A   Mist
8:15 AM 57.2 °F 57.2 °F 100% 30.11 in 0.5 mi North 11.5 mph - N/A Fog Fog
8:35 AM 55.4 °F 55.4 °F 100% 30.10 in 1.2 mi North 12.7 mph - N/A   Mist
8:55 AM 57.2 °F 57.2 °F 100% 30.11 in 1.2 mi North 10.4 mph - N/A   Mist
9:15 AM 57.2 °F 57.2 °F 100% 30.10 in 1.5 mi North 11.5 mph - N/A   Mist
9:35 AM 57.2 °F 57.2 °F 100% 30.10 in 2.0 mi North 11.5 mph - N/A   Mist
9:55 AM 57.2 °F 57.2 °F 100% 30.10 in 2.5 mi North 11.5 mph - N/A   Mist
10:15 AM 57.2 °F 57.2 °F 100% 30.10 in 2.0 mi North 11.5 mph - N/A   Mist
10:35 AM 57.2 °F 57.2 °F 100% 30.10 in 1.0 mi North 8.1 mph - N/A   Mist
10:55 AM 57.2 °F 57.2 °F 100% 30.10 in 0.8 mi North 9.2 mph - N/A   Mist
11:15 AM 57.2 °F 57.2 °F 100% 30.10 in 1.2 mi North 10.4 mph - N/A   Mist
11:35 AM 57.2 °F 57.2 °F 100% 30.10 in 0.8 mi North 9.2 mph - N/A   Mist
11:55 AM 59.0 °F 59.0 °F 100% 30.10 in 1.2 mi North 11.5 mph - N/A   Mist
12:15 PM 59.0 °F 59.0 °F 100% 30.09 in 1.2 mi North 12.7 mph - N/A   Mist
12:35 PM 59.0 °F 59.0 °F 100% 30.08 in 0.8 mi North 11.5 mph - N/A   Mist
12:55 PM 59.0 °F 59.0 °F 100% 30.08 in 0.8 mi NNE 10.4 mph - N/A   Mist
1:15 PM 60.8 °F 60.8 °F 100% 30.07 in 1.5 mi North 10.4 mph - N/A   Mist
1:35 PM 60.8 °F 60.8 °F 100% 30.07 in 2.0 mi North 11.5 mph - N/A   Mist
1:55 PM 60.8 °F 60.8 °F 100% 30.06 in 9.0 mi NNE 12.7 mph - N/A   Unknown
2:15 PM 62.6 °F 62.6 °F 100% 30.05 in 10.0 mi NNE 10.4 mph - N/A   Unknown
2:35 PM 62.6 °F 62.6 °F 100% 30.05 in 10.0 mi North 10.4 mph - N/A   Unknown
2:55 PM 62.6 °F 62.6 °F 100% 30.03 in 10.0 mi North 12.7 mph - N/A   Unknown
3:15 PM 64.4 °F 64.4 °F 100% 30.02 in 10.0 mi North 13.8 mph 17.3 mph N/A   Unknown
3:35 PM 64.4 °F 64.4 °F 100% 30.02 in 10.0 mi North 12.7 mph 18.4 mph N/A   Unknown
3:55 PM 64.4 °F 64.4 °F 100% 30.01 in 10.0 mi NNE 10.4 mph - N/A   Unknown
4:15 PM 64.4 °F 64.4 °F 100% 30.01 in 10.0 mi NNE 10.4 mph - N/A   Unknown
4:35 PM 64.4 °F 64.4 °F 100% 30.01 in 10.0 mi North 11.5 mph - N/A   Unknown
4:55 PM 64.4 °F 64.4 °F 100% 30.00 in 10.0 mi North 11.5 mph - N/A   Unknown
5:15 PM 64.4 °F 64.4 °F 100% 29.99 in 6.0 mi North 10.4 mph - N/A   Mist
5:35 PM 64.4 °F 64.4 °F 100% 29.98 in 3.0 mi North 12.7 mph - N/A   Mist
5:55 PM 64.4 °F 64.4 °F 100% 29.97 in 1.5 mi North 11.5 mph - 0.08 in Rain Rain
6:15 PM 64.4 °F 64.4 °F 100% 29.96 in 9.0 mi NNE 11.5 mph 19.6 mph N/A   Unknown
6:35 PM 64.4 °F 64.4 °F 100% 29.95 in 10.0 mi NNE 13.8 mph 21.9 mph N/A   Unknown
6:55 PM 64.4 °F 64.4 °F 100% 29.94 in 10.0 mi NNE 15.0 mph 21.9 mph N/A   Unknown
7:15 PM 64.4 °F 64.4 °F 100% 29.93 in 10.0 mi NE 11.5 mph 18.4 mph N/A   Unknown
7:35 PM 64.4 °F 64.4 °F 100% 29.93 in 10.0 mi NE 15.0 mph - N/A   Unknown
7:55 PM 64.4 °F 64.4 °F 100% 29.93 in 9.0 mi ENE 12.7 mph 20.7 mph N/A   Unknown
8:15 PM 66.2 °F 66.2 °F 100% 29.91 in 3.0 mi NE 13.8 mph - N/A Rain Light Rain
8:35 PM 66.2 °F 66.2 °F 100% 29.92 in 3.0 mi NE 10.4 mph - 0.01 in Rain Light Rain
8:55 PM 66.2 °F 66.2 °F 100% 29.91 in 1.2 mi ENE 6.9 mph - 0.09 in Rain Light Rain
9:15 PM 66.2 °F 66.2 °F 100% 29.90 in 3.0 mi SE 8.1 mph 17.3 mph N/A Rain Light Rain
9:35 PM 66.2 °F 66.2 °F 100% 29.90 in 3.0 mi East 8.1 mph - 0.02 in Rain Light Rain
9:55 PM 66.2 °F 66.2 °F 100% 29.90 in 3.0 mi SE 16.1 mph 20.7 mph 0.03 in Rain Light Rain
10:15 PM 66.2 °F 66.2 °F 100% 29.88 in 4.0 mi ESE 10.4 mph 16.1 mph N/A Rain Light Rain
10:35 PM 66.2 °F 66.2 °F 100% 29.87 in 5.0 mi East 10.4 mph 16.1 mph 0.01 in Rain Light Rain
10:55 PM 66.2 °F 66.2 °F 100% 29.87 in 5.0 mi East 11.5 mph - 0.02 in Rain Light Rain
11:15 PM 66.2 °F 66.2 °F 100% 29.86 in 5.0 mi East 17.3 mph 20.7 mph N/A Rain Light Rain
11:35 PM 66.2 °F 66.2 °F 100% 29.85 in 4.0 mi East 13.8 mph 19.6 mph 0.01 in Rain Light Rain
11:55 PM 66.2 °F 66.2 °F 100% 29.84 in 4.0 mi East 15.0 mph 21.9 mph 0.02 in Rain Light Rain